Time,TemperatureF,DewpointF,PressureIn,WindDirection,WindDirectionDegrees,WindSpeedMPH,WindSpeedGustMPH,Humidity,HourlyPrecipIn,Conditions,Clouds,dailyrainin,SolarRadiationWatts/m^2,SoftwareType,DateUTC
2013-01-11 00:00:00,36.7,27.1,30.47,NNW,331,1.0,5.0,68,0.00,,---,0.00,0.00,VWS V14.01,2013-01-11 05:00:00,
2013-01-11 00:04:00,36.7,27.1,30.48,NNW,336,4.0,5.0,68,0.00,,---,0.00,0.00,VWS V14.01,2013-01-11 05:04:00,
2013-01-11 00:05:00,36.8,27.2,30.48,NNW,336,2.0,5.0,68,0.00,,---,0.00,0.00,VWS V14.01,2013-01-11 05:05:00,
2013-01-11 00:06:00,36.8,27.2,30.48,NNW,338,5.0,5.0,68,0.00,,---,0.00,0.00,VWS V14.01,2013-01-11 05:06:00,
2013-01-11 00:11:00,37.0,27.1,30.47,NNW,338,2.0,5.0,67,0.00,,---,0.00,0.00,VWS V14.01,2013-01-11 05:11:00,
2013-01-11 00:16:00,37.1,27.2,30.47,North,355,2.0,6.0,67,0.00,,---,0.00,0.00,VWS V14.01,2013-01-11 05:16:00,
2013-01-11 00:22:00,37.1,27.2,30.48,North,360,0.0,6.0,67,0.00,,---,0.00,0.00,VWS V14.01,2013-01-11 05:22:00,
2013-01-11 00:27:00,37.1,27.2,30.47,North,360,1.0,6.0,67,0.00,,---,0.00,0.00,VWS V14.01,2013-01-11 05:27:00,
2013-01-11 00:30:00,37.0,27.1,30.47,North,355,3.0,6.0,67,0.00,,---,0.00,0.00,VWS V14.01,2013-01-11 05:30:00,
2013-01-11 00:32:00,37.0,27.1,30.46,North,5,0.0,3.0,67,0.00,,---,0.00,0.00,VWS V14.01,2013-01-11 05:32:00,
2013-01-11 00:38:00,36.9,27.0,30.46,NNW,342,3.0,7.0,67,0.00,,---,0.00,0.00,VWS V14.01,2013-01-11 05:38:00,
2013-01-11 00:43:00,37.1,27.2,30.46,North,360,1.0,7.0,67,0.00,,---,0.00,0.00,VWS V14.01,2013-01-11 05:43:00,
2013-01-11 00:48:00,37.0,27.1,30.46,NNE,28,1.0,7.0,67,0.00,,---,0.00,0.00,VWS V14.01,2013-01-11 05:48:00,
2013-01-11 00:53:00,36.9,27.0,30.46,North,5,1.0,7.0,67,0.00,,---,0.00,0.00,VWS V14.01,2013-01-11 05:53:00,
2013-01-11 00:59:00,36.8,26.9,30.46,NNE,19,0.0,7.0,67,0.00,,---,0.00,0.00,VWS V14.01,2013-01-11 05:59:00,
2013-01-11 01:04:00,36.8,27.2,30.46,North,5,1.0,3.0,68,0.00,,---,0.00,0.00,VWS V14.01,2013-01-11 06:04:00,
2013-01-11 01:09:00,36.7,27.1,30.46,North,5,0.0,3.0,68,0.00,,---,0.00,0.00,VWS V14.01,2013-01-11 06:09:00,
2013-01-11 01:15:00,36.6,27.0,30.45,North,11,2.0,7.0,68,0.00,,---,0.00,0.00,VWS V14.01,2013-01-11 06:15:00,
2013-01-11 01:20:00,36.6,27.0,30.45,NNE,15,2.0,7.0,68,0.00,,---,0.00,0.00,VWS V14.01,2013-01-11 06:20:00,
2013-01-11 01:25:00,36.6,26.7,30.45,NNE,28,0.0,7.0,67,0.00,,---,0.00,0.00,VWS V14.01,2013-01-11 06:25:00,
2013-01-11 01:30:00,36.6,27.0,30.45,NNE,20,2.0,7.0,68,0.00,,---,0.00,0.00,VWS V14.01,2013-01-11 06:30:00,
2013-01-11 01:31:00,36.6,27.0,30.45,NNE,20,2.0,2.0,68,0.00,,---,0.00,0.00,VWS V14.01,2013-01-11 06:31:00,
2013-01-11 01:36:00,36.6,26.7,30.45,NNW,348,5.0,5.0,67,0.00,,---,0.00,0.00,VWS V14.01,2013-01-11 06:36:00,
2013-01-11 01:41:00,36.6,26.7,30.46,NNW,347,0.0,8.0,67,0.00,,---,0.00,0.00,VWS V14.01,2013-01-11 06:41:00,
2013-01-11 01:46:00,36.6,26.7,30.46,NNE,19,1.0,8.0,67,0.00,,---,0.00,0.00,VWS V14.01,2013-01-11 06:46:00,
2013-01-11 01:52:00,36.6,26.7,30.45,North,5,0.0,8.0,67,0.00,,---,0.00,0.00,VWS V14.01,2013-01-11 06:52:00,
2013-01-11 01:57:00,36.4,26.5,30.45,North,5,0.0,8.0,67,0.00,,---,0.00,0.00,VWS V14.01,2013-01-11 06:57:00,
2013-01-11 02:00:00,36.4,26.5,30.45,North,5,1.0,8.0,67,0.00,,---,0.00,0.00,VWS V14.01,2013-01-11 07:00:00,
2013-01-11 02:02:00,36.3,26.4,30.44,North,360,2.0,4.0,67,0.00,,---,0.00,0.00,VWS V14.01,2013-01-11 07:02:00,
2013-01-11 02:08:00,36.2,26.3,30.44,NE,46,0.0,4.0,67,0.00,,---,0.00,0.00,VWS V14.01,2013-01-11 07:08:00,
2013-01-11 02:13:00,36.2,26.3,30.44,North,355,3.0,4.0,67,0.00,,---,0.00,0.00,VWS V14.01,2013-01-11 07:13:00,
2013-01-11 02:18:00,36.3,26.4,30.44,NE,42,0.0,4.0,67,0.00,,---,0.00,0.00,VWS V14.01,2013-01-11 07:18:00,
2013-01-11 02:23:00,36.4,26.5,30.44,NNE,19,1.0,4.0,67,0.00,,---,0.00,0.00,VWS V14.01,2013-01-11 07:23:00,
2013-01-11 02:29:00,36.4,26.5,30.44,NE,42,2.0,4.0,67,0.00,,---,0.00,0.00,VWS V14.01,2013-01-11 07:29:00,
2013-01-11 02:30:00,36.5,26.6,30.44,NE,42,1.0,4.0,67,0.00,,---,0.00,0.00,VWS V14.01,2013-01-11 07:30:00,
2013-01-11 02:34:00,36.4,26.5,30.43,NE,53,2.0,6.0,67,0.00,,---,0.00,0.00,VWS V14.01,2013-01-11 07:34:00,
2013-01-11 02:39:00,36.4,26.5,30.43,NE,40,1.0,6.0,67,0.00,,---,0.00,0.00,VWS V14.01,2013-01-11 07:39:00,
2013-01-11 02:45:00,36.4,26.1,30.44,NNE,14,1.0,6.0,66,0.00,,---,0.00,0.00,VWS V14.01,2013-01-11 07:45:00,
2013-01-11 02:50:00,36.4,26.5,30.44,NNE,22,0.0,6.0,67,0.00,,---,0.00,0.00,VWS V14.01,2013-01-11 07:50:00,
2013-01-11 02:55:00,36.2,26.3,30.43,NNE,27,1.0,6.0,67,0.00,,---,0.00,0.00,VWS V14.01,2013-01-11 07:55:00,
2013-01-11 03:00:00,36.2,26.3,30.43,NNE,27,0.0,0.0,67,0.00,,---,0.00,0.00,VWS V14.01,2013-01-11 08:00:00,
2013-01-11 03:06:00,36.1,26.2,30.43,NNE,27,1.0,2.0,67,0.00,,---,0.00,0.00,VWS V14.01,2013-01-11 08:06:00,
2013-01-11 03:11:00,36.1,26.2,30.43,NNE,31,0.0,3.0,67,0.00,,---,0.00,0.00,VWS V14.01,2013-01-11 08:11:00,
2013-01-11 03:16:00,36.1,26.2,30.43,North,5,1.0,4.0,67,0.00,,---,0.00,0.00,VWS V14.01,2013-01-11 08:16:00,
2013-01-11 03:22:00,36.1,26.2,30.43,NNE,19,1.0,4.0,67,0.00,,---,0.00,0.00,VWS V14.01,2013-01-11 08:22:00,
2013-01-11 03:27:00,36.0,26.1,30.42,NNE,30,2.0,4.0,67,0.00,,---,0.00,0.00,VWS V14.01,2013-01-11 08:27:00,
2013-01-11 03:30:00,36.0,26.1,30.42,NE,39,2.0,4.0,67,0.00,,---,0.00,0.00,VWS V14.01,2013-01-11 08:30:00,
2013-01-11 03:32:00,35.9,26.0,30.42,NE,39,2.0,3.0,67,0.00,,---,0.00,0.00,VWS V14.01,2013-01-11 08:32:00,
2013-01-11 03:37:00,35.8,26.3,30.42,NE,40,0.0,3.0,68,0.00,,---,0.00,0.00,VWS V14.01,2013-01-11 08:37:00,
2013-01-11 03:43:00,35.7,26.2,30.42,NE,40,0.0,3.0,68,0.00,,---,0.00,0.00,VWS V14.01,2013-01-11 08:43:00,
2013-01-11 03:48:00,35.7,26.2,30.42,NE,40,1.0,3.0,68,0.00,,---,0.00,0.00,VWS V14.01,2013-01-11 08:48:00,
2013-01-11 03:53:00,35.6,26.1,30.41,NE,40,1.0,3.0,68,0.00,,---,0.00,0.00,VWS V14.01,2013-01-11 08:53:00,
2013-01-11 03:59:00,35.5,26.0,30.42,NE,40,0.0,3.0,68,0.00,,---,0.00,0.00,VWS V14.01,2013-01-11 08:59:00,
2013-01-11 04:04:00,35.4,25.9,30.41,NE,40,1.0,2.0,68,0.00,,---,0.00,0.00,VWS V14.01,2013-01-11 09:04:00,
2013-01-11 04:09:00,35.2,26.1,30.42,NE,40,0.0,3.0,69,0.00,,---,0.00,0.00,VWS V14.01,2013-01-11 09:09:00,
2013-01-11 04:14:00,35.0,25.9,30.42,NE,40,0.0,3.0,69,0.00,,---,0.00,0.00,VWS V14.01,2013-01-11 09:14:00,
2013-01-11 04:20:00,34.8,25.7,30.42,NE,40,0.0,3.0,69,0.00,,---,0.00,0.00,VWS V14.01,2013-01-11 09:20:00,
2013-01-11 04:25:00,34.8,25.7,30.42,NE,40,1.0,3.0,69,0.00,,---,0.00,0.00,VWS V14.01,2013-01-11 09:25:00,
2013-01-11 04:30:00,34.7,25.6,30.42,NE,40,0.0,3.0,69,0.00,,---,0.00,0.00,VWS V14.01,2013-01-11 09:30:00,
2013-01-11 04:35:00,34.6,25.8,30.41,NE,40,0.0,1.0,70,0.00,,---,0.00,0.00,VWS V14.01,2013-01-11 09:35:00,
2013-01-11 04:41:00,34.6,25.8,30.41,NE,40,0.0,2.0,70,0.00,,---,0.00,0.00,VWS V14.01,2013-01-11 09:41:00,
2013-01-11 04:46:00,34.6,26.2,30.41,NE,50,1.0,4.0,71,0.00,,---,0.00,0.00,VWS V14.01,2013-01-11 09:46:00,
2013-01-11 04:51:00,34.7,26.3,30.41,ENE,58,2.0,5.0,71,0.00,,---,0.00,0.00,VWS V14.01,2013-01-11 09:51:00,
2013-01-11 04:57:00,34.8,26.0,30.41,ENE,60,0.0,5.0,70,0.00,,---,0.00,0.00,VWS V14.01,2013-01-11 09:57:00,
2013-01-11 05:00:00,34.8,26.4,30.41,ENE,60,2.0,5.0,71,0.00,,---,0.00,0.00,VWS V14.01,2013-01-11 10:00:00,
2013-01-11 05:02:00,34.8,26.4,30.41,ENE,65,2.0,3.0,71,0.00,,---,0.00,0.00,VWS V14.01,2013-01-11 10:02:00,
2013-01-11 05:07:00,34.8,26.0,30.41,ENE,65,1.0,3.0,70,0.00,,---,0.00,0.00,VWS V14.01,2013-01-11 10:07:00,
2013-01-11 05:12:00,34.8,26.0,30.41,ENE,65,1.0,3.0,70,0.00,,---,0.00,0.00,VWS V14.01,2013-01-11 10:12:00,
2013-01-11 05:18:00,34.6,26.2,30.41,ENE,65,2.0,3.0,71,0.00,,---,0.00,0.00,VWS V14.01,2013-01-11 10:18:00,
2013-01-11 05:23:00,34.3,25.9,30.40,ENE,65,1.0,3.0,71,0.00,,---,0.00,0.00,VWS V14.01,2013-01-11 10:23:00,
2013-01-11 05:28:00,33.9,25.8,30.41,ENE,65,3.0,3.0,72,0.00,,---,0.00,0.00,VWS V14.01,2013-01-11 10:28:00,
2013-01-11 05:30:00,33.8,27.4,30.41,ENE,65,2.0,3.0,77,0.00,,---,0.00,0.00,VWS V14.01,2013-01-11 10:30:00,
2013-01-11 05:34:00,33.7,25.6,30.41,ENE,65,1.0,2.0,72,0.00,,---,0.00,0.00,VWS V14.01,2013-01-11 10:34:00,
2013-01-11 05:39:00,33.7,25.6,30.41,ENE,66,2.0,3.0,72,0.00,,---,0.00,0.00,VWS V14.01,2013-01-11 10:39:00,
2013-01-11 05:44:00,33.7,25.6,30.41,ENE,66,1.0,3.0,72,0.00,,---,0.00,0.00,VWS V14.01,2013-01-11 10:44:00,
2013-01-11 05:50:00,33.7,25.6,30.41,ENE,66,1.0,3.0,72,0.00,,---,0.00,0.00,VWS V14.01,2013-01-11 10:50:00,
2013-01-11 05:55:00,33.5,25.5,30.41,ENE,66,1.0,3.0,72,0.00,,---,0.00,0.00,VWS V14.01,2013-01-11 10:55:00,
2013-01-11 06:00:00,33.5,25.5,30.42,ENE,66,0.0,0.0,72,0.00,,---,0.00,0.00,VWS V14.01,2013-01-11 11:00:00,
2013-01-11 06:06:00,33.7,25.6,30.42,ENE,66,1.0,2.0,72,0.00,,---,0.00,0.00,VWS V14.01,2013-01-11 11:06:00,
2013-01-11 06:11:00,33.7,25.6,30.41,ENE,66,0.0,2.0,72,0.00,,---,0.00,0.00,VWS V14.01,2013-01-11 11:11:00,
2013-01-11 06:16:00,33.6,25.9,30.42,ENE,66,0.0,2.0,73,0.00,,---,0.00,0.00,VWS V14.01,2013-01-11 11:16:00,
2013-01-11 06:22:00,33.6,25.9,30.42,ENE,66,0.0,2.0,73,0.00,,---,0.00,0.00,VWS V14.01,2013-01-11 11:22:00,
2013-01-11 06:27:00,33.5,25.8,30.42,ENE,66,1.0,2.0,73,0.00,,---,0.00,0.00,VWS V14.01,2013-01-11 11:27:00,
2013-01-11 06:32:00,33.5,25.8,30.41,ENE,66,1.0,1.0,73,0.00,,---,0.00,0.00,VWS V14.01,2013-01-11 11:32:00,
2013-01-11 06:37:00,33.5,25.8,30.41,ENE,66,0.0,2.0,73,0.00,,---,0.00,0.00,VWS V14.01,2013-01-11 11:37:00,
2013-01-11 06:43:00,33.6,25.9,30.41,ENE,66,2.0,2.0,73,0.00,,---,0.00,0.00,VWS V14.01,2013-01-11 11:43:00,
2013-01-11 06:48:00,33.4,25.7,30.41,ENE,66,2.0,3.0,73,0.00,,---,0.00,0.00,VWS V14.01,2013-01-11 11:48:00,
2013-01-11 06:53:00,33.1,25.7,30.41,ENE,66,1.0,3.0,74,0.00,,---,0.00,0.00,VWS V14.01,2013-01-11 11:53:00,
2013-01-11 06:59:00,32.9,25.9,30.41,ENE,66,2.0,3.0,75,0.00,,---,0.00,0.00,VWS V14.01,2013-01-11 11:59:00,
2013-01-11 07:00:00,32.8,25.8,30.40,ENE,66,2.0,3.0,75,0.00,,---,0.00,0.00,VWS V14.01,2013-01-11 12:00:00,
2013-01-11 07:04:00,32.9,25.9,30.40,ENE,66,2.0,3.0,75,0.00,,---,0.00,0.00,VWS V14.01,2013-01-11 12:04:00,
2013-01-11 07:09:00,33.0,26.0,30.40,ENE,66,2.0,3.0,75,0.00,,---,0.00,0.00,VWS V14.01,2013-01-11 12:09:00,
2013-01-11 07:15:00,33.2,26.5,30.40,ENE,66,2.0,3.0,76,0.00,,---,0.00,0.00,VWS V14.01,2013-01-11 12:15:00,
2013-01-11 07:20:00,33.3,26.2,30.40,ENE,66,2.0,3.0,75,0.00,,---,0.00,0.00,VWS V14.01,2013-01-11 12:20:00,
2013-01-11 07:25:00,33.4,26.3,30.40,ENE,67,3.0,3.0,75,0.00,,---,0.00,0.00,VWS V14.01,2013-01-11 12:25:00,
2013-01-11 07:30:00,33.5,26.4,30.39,ENE,66,2.0,4.0,75,0.00,,---,0.00,0.00,VWS V14.01,2013-01-11 12:30:00,
2013-01-11 07:36:00,33.7,26.6,30.39,ENE,69,2.0,5.0,75,0.00,,---,0.00,5.00,VWS V14.01,2013-01-11 12:36:00,
2013-01-11 07:41:00,33.9,26.8,30.39,ENE,68,3.0,5.0,75,0.00,,---,0.00,9.00,VWS V14.01,2013-01-11 12:41:00,
2013-01-11 07:46:00,34.0,26.9,30.39,ENE,70,2.0,6.0,75,0.00,,---,0.00,9.00,VWS V14.01,2013-01-11 12:46:00,
2013-01-11 07:52:00,34.2,27.1,30.38,East,82,2.0,6.0,75,0.00,,---,0.00,11.00,VWS V14.01,2013-01-11 12:52:00,
2013-01-11 07:57:00,34.3,26.9,30.39,ENE,69,2.0,6.0,74,0.00,,---,0.00,12.00,VWS V14.01,2013-01-11 12:57:00,
2013-01-11 08:00:00,34.4,27.0,30.39,ENE,71,2.0,6.0,74,0.00,,---,0.00,12.00,VWS V14.01,2013-01-11 13:00:00,
2013-01-11 08:02:00,34.4,27.0,30.39,ENE,68,3.0,4.0,74,0.00,,---,0.00,12.00,VWS V14.01,2013-01-11 13:02:00,
2013-01-11 08:07:00,34.6,26.9,30.39,ENE,65,3.0,5.0,73,0.00,,---,0.00,12.00,VWS V14.01,2013-01-11 13:07:00,
2013-01-11 08:13:00,34.7,27.3,30.39,ENE,67,4.0,5.0,74,0.00,,---,0.00,14.00,VWS V14.01,2013-01-11 13:13:00,
2013-01-11 08:18:00,34.8,27.0,30.39,ENE,65,1.0,5.0,73,0.00,,---,0.00,14.00,VWS V14.01,2013-01-11 13:18:00,
2013-01-11 08:23:00,35.0,27.6,30.40,ENE,65,2.0,5.0,74,0.00,,---,0.00,16.00,VWS V14.01,2013-01-11 13:23:00,
2013-01-11 08:29:00,35.0,27.6,30.40,ENE,65,2.0,5.0,74,0.00,,---,0.00,19.00,VWS V14.01,2013-01-11 13:29:00,
2013-01-11 08:30:00,35.1,27.3,30.40,ENE,65,3.0,5.0,73,0.00,,---,0.00,21.00,VWS V14.01,2013-01-11 13:30:00,
2013-01-11 08:34:00,35.1,27.7,30.39,ENE,65,3.0,4.0,74,0.00,,---,0.00,21.00,VWS V14.01,2013-01-11 13:34:00,
2013-01-11 08:39:00,35.3,27.9,30.40,ENE,73,3.0,5.0,74,0.00,,---,0.00,16.00,VWS V14.01,2013-01-11 13:39:00,
2013-01-11 08:44:00,35.4,28.0,30.40,ENE,76,3.0,5.0,74,0.00,,---,0.00,14.00,VWS V14.01,2013-01-11 13:44:00,
2013-01-11 08:50:00,35.4,28.0,30.41,ENE,75,2.0,5.0,74,0.00,,---,0.00,18.00,VWS V14.01,2013-01-11 13:50:00,
2013-01-11 08:55:00,35.4,28.0,30.40,ENE,71,3.0,5.0,74,0.00,,---,0.00,28.00,VWS V14.01,2013-01-11 13:55:00,
2013-01-11 09:00:00,35.5,28.0,30.40,ENE,69,2.0,3.0,74,0.00,,---,0.00,49.00,VWS V14.01,2013-01-11 14:00:00,
2013-01-11 09:06:00,35.7,28.6,30.40,ENE,70,3.0,3.0,75,0.00,,---,0.00,69.00,VWS V14.01,2013-01-11 14:06:00,
2013-01-11 09:11:00,36.0,29.2,30.40,ENE,67,3.0,7.0,76,0.00,,---,0.00,88.00,VWS V14.01,2013-01-11 14:11:00,
2013-01-11 09:16:00,36.3,29.5,30.40,ENE,71,3.0,7.0,76,0.00,,---,0.00,74.00,VWS V14.01,2013-01-11 14:16:00,
2013-01-11 09:21:00,36.5,29.7,30.39,ENE,69,3.0,7.0,76,0.00,,---,0.00,79.00,VWS V14.01,2013-01-11 14:21:00,
2013-01-11 09:27:00,36.7,29.9,30.39,ENE,67,4.0,7.0,76,0.00,,---,0.00,74.00,VWS V14.01,2013-01-11 14:27:00,
2013-01-11 09:30:00,36.7,29.9,30.39,ENE,68,5.0,7.0,76,0.00,,---,0.00,69.00,VWS V14.01,2013-01-11 14:30:00,
2013-01-11 09:32:00,36.7,29.9,30.38,ENE,67,5.0,8.0,76,0.00,,---,0.00,69.00,VWS V14.01,2013-01-11 14:32:00,
2013-01-11 09:37:00,36.6,29.8,30.37,ENE,67,5.0,8.0,76,0.00,,---,0.00,84.00,VWS V14.01,2013-01-11 14:37:00,
2013-01-11 09:43:00,36.6,29.8,30.37,ENE,69,7.0,9.0,76,0.00,,---,0.00,107.00,VWS V14.01,2013-01-11 14:43:00,
2013-01-11 09:48:00,36.7,30.2,30.37,East,84,5.0,9.0,77,0.00,,---,0.00,123.00,VWS V14.01,2013-01-11 14:48:00,
2013-01-11 09:53:00,36.8,30.3,30.37,ENE,68,5.0,9.0,77,0.00,,---,0.00,121.00,VWS V14.01,2013-01-11 14:53:00,
2013-01-11 09:58:00,37.0,30.5,30.36,East,80,7.0,9.0,77,0.00,,---,0.00,109.00,VWS V14.01,2013-01-11 14:58:00,
2013-01-11 10:00:00,37.0,30.8,30.36,ENE,67,5.0,9.0,78,0.00,,---,0.00,98.00,VWS V14.01,2013-01-11 15:00:00,
2013-01-11 10:04:00,37.0,30.8,30.36,ENE,67,3.0,8.0,78,0.00,,---,0.00,95.00,VWS V14.01,2013-01-11 15:04:00,
2013-01-11 10:09:00,37.1,30.6,30.36,East,87,7.0,8.0,77,0.00,,---,0.00,111.00,VWS V14.01,2013-01-11 15:09:00,
2013-01-11 10:14:00,37.1,30.9,30.36,ENE,76,3.0,8.0,78,0.00,,---,0.00,100.00,VWS V14.01,2013-01-11 15:14:00,
2013-01-11 10:20:00,37.2,31.0,30.36,ENE,78,3.0,8.0,78,0.00,,---,0.00,105.00,VWS V14.01,2013-01-11 15:20:00,
2013-01-11 10:25:00,37.3,31.1,30.36,ENE,68,3.0,8.0,78,0.00,,---,0.00,90.00,VWS V14.01,2013-01-11 15:25:00,
2013-01-11 10:30:00,37.4,31.2,30.35,ENE,67,3.0,8.0,78,0.00,,---,0.00,86.00,VWS V14.01,2013-01-11 15:30:00,
2013-01-11 10:35:00,37.5,31.6,30.35,East,82,6.0,6.0,79,0.00,,---,0.00,74.00,VWS V14.01,2013-01-11 15:35:00,
2013-01-11 10:41:00,37.6,31.7,30.34,ENE,69,5.0,7.0,79,0.00,,---,0.00,77.00,VWS V14.01,2013-01-11 15:41:00,
2013-01-11 10:46:00,37.7,31.8,30.34,East,86,3.0,7.0,79,0.00,,---,0.00,105.00,VWS V14.01,2013-01-11 15:46:00,
2013-01-11 10:51:00,37.9,32.0,30.33,ENE,69,3.0,7.0,79,0.00,,---,0.00,130.00,VWS V14.01,2013-01-11 15:51:00,
2013-01-11 10:57:00,38.0,32.1,30.32,East,80,5.0,7.0,79,0.00,,---,0.00,65.00,VWS V14.01,2013-01-11 15:57:00,
2013-01-11 11:00:00,38.1,32.2,30.32,ENE,72,3.0,7.0,79,0.00,,---,0.00,54.00,VWS V14.01,2013-01-11 16:00:00,
2013-01-11 11:02:00,38.0,32.1,30.32,ENE,64,3.0,7.0,79,0.00,,---,0.00,46.00,VWS V14.01,2013-01-11 16:02:00,
2013-01-11 11:07:00,38.0,32.1,30.33,East,81,2.0,7.0,79,0.00,,---,0.00,62.00,VWS V14.01,2013-01-11 16:07:00,
2013-01-11 11:12:00,38.0,32.1,30.33,ENE,72,2.0,7.0,79,0.00,,---,0.00,63.00,VWS V14.01,2013-01-11 16:12:00,
2013-01-11 11:18:00,38.1,32.5,30.32,East,83,3.0,7.0,80,0.00,,---,0.00,90.00,VWS V14.01,2013-01-11 16:18:00,
2013-01-11 11:23:00,38.0,32.4,30.31,ENE,76,3.0,7.0,80,0.00,,---,0.00,107.00,VWS V14.01,2013-01-11 16:23:00,
2013-01-11 11:28:00,38.1,33.1,30.31,ENE,65,7.0,8.0,82,0.00,,---,0.00,100.00,VWS V14.01,2013-01-11 16:28:00,
2013-01-11 11:30:00,38.1,32.8,30.30,ENE,74,3.0,8.0,81,0.00,,---,0.00,95.00,VWS V14.01,2013-01-11 16:30:00,
2013-01-11 11:34:00,38.1,32.8,30.31,ENE,69,4.0,7.0,81,0.00,,---,0.00,69.00,VWS V14.01,2013-01-11 16:34:00,
2013-01-11 11:39:00,38.1,32.8,30.31,East,91,5.0,7.0,81,0.00,,---,0.00,81.00,VWS V14.01,2013-01-11 16:39:00,
2013-01-11 11:44:00,38.2,33.2,30.30,ENE,64,2.0,7.0,82,0.00,,---,0.00,120.00,VWS V14.01,2013-01-11 16:44:00,
2013-01-11 11:50:00,38.5,33.8,30.30,ENE,74,4.0,7.0,83,0.00,,---,0.00,105.00,VWS V14.01,2013-01-11 16:50:00,
2013-01-11 11:55:00,38.6,33.6,30.30,East,87,3.0,7.0,82,0.00,,---,0.00,95.00,VWS V14.01,2013-01-11 16:55:00,
2013-01-11 12:00:00,38.8,33.8,30.29,ENE,64,5.0,7.0,82,0.00,,---,0.00,104.00,VWS V14.01,2013-01-11 17:00:00,
2013-01-11 12:05:00,38.9,33.9,30.28,ENE,70,4.0,7.0,82,0.00,,---,0.00,107.00,VWS V14.01,2013-01-11 17:05:00,
2013-01-11 12:11:00,38.9,33.9,30.28,ENE,70,2.0,7.0,82,0.00,,---,0.00,81.00,VWS V14.01,2013-01-11 17:11:00,
2013-01-11 12:16:00,38.9,33.9,30.29,East,89,3.0,7.0,82,0.00,,---,0.00,58.00,VWS V14.01,2013-01-11 17:16:00,
2013-01-11 12:21:00,38.9,33.9,30.28,ENE,67,3.0,7.0,82,0.00,,---,0.00,62.00,VWS V14.01,2013-01-11 17:21:00,
2013-01-11 12:27:00,38.9,33.9,30.28,ENE,66,5.0,7.0,82,0.00,,---,0.00,107.00,VWS V14.01,2013-01-11 17:27:00,
2013-01-11 12:30:00,39.1,34.1,30.27,ENE,67,7.0,7.0,82,0.00,,---,0.00,151.00,VWS V14.01,2013-01-11 17:30:00,
2013-01-11 12:32:00,39.1,34.1,30.27,ENE,65,7.0,7.0,82,0.00,,---,0.00,134.00,VWS V14.01,2013-01-11 17:32:00,
2013-01-11 12:37:00,39.5,34.5,30.27,ENE,71,3.0,7.0,82,0.00,,---,0.00,195.00,VWS V14.01,2013-01-11 17:37:00,
2013-01-11 12:42:00,39.8,34.5,30.27,ENE,64,7.0,8.0,81,0.00,,---,0.00,149.00,VWS V14.01,2013-01-11 17:42:00,
2013-01-11 12:48:00,40.0,34.7,30.27,East,86,6.0,8.0,81,0.00,,---,0.00,232.00,VWS V14.01,2013-01-11 17:48:00,
2013-01-11 12:53:00,40.4,35.0,30.27,ENE,65,8.0,8.0,81,0.00,,---,0.00,171.00,VWS V14.01,2013-01-11 17:53:00,
2013-01-11 12:58:00,40.6,34.6,30.26,ENE,67,5.0,8.0,79,0.00,,---,0.00,121.00,VWS V14.01,2013-01-11 17:58:00,
2013-01-11 13:00:00,40.6,34.9,30.26,ENE,72,3.0,8.0,80,0.00,,---,0.00,111.00,VWS V14.01,2013-01-11 18:00:00,
2013-01-11 13:03:00,40.6,34.9,30.26,ENE,71,3.0,8.0,80,0.00,,---,0.00,141.00,VWS V14.01,2013-01-11 18:03:00,
2013-01-11 13:09:00,40.7,35.0,30.26,East,82,3.0,8.0,80,0.00,,---,0.00,271.00,VWS V14.01,2013-01-11 18:09:00,
2013-01-11 13:14:00,41.2,35.5,30.24,ENE,71,5.0,8.0,80,0.00,,---,0.00,227.00,VWS V14.01,2013-01-11 18:14:00,
2013-01-11 13:19:00,41.3,35.3,30.24,East,93,7.0,10.0,79,0.00,,---,0.00,153.00,VWS V14.01,2013-01-11 18:19:00,
2013-01-11 13:25:00,41.3,35.3,30.24,ENE,60,5.0,10.0,79,0.00,,---,0.00,190.00,VWS V14.01,2013-01-11 18:25:00,
2013-01-11 13:30:00,41.5,35.8,30.24,East,81,5.0,10.0,80,0.00,,---,0.00,90.00,VWS V14.01,2013-01-11 18:30:00,
2013-01-11 13:35:00,41.2,35.2,30.24,ENE,71,7.0,8.0,79,0.00,,---,0.00,77.00,VWS V14.01,2013-01-11 18:35:00,
2013-01-11 13:41:00,41.1,35.1,30.23,East,88,7.0,8.0,79,0.00,,---,0.00,79.00,VWS V14.01,2013-01-11 18:41:00,
2013-01-11 13:46:00,41.2,35.5,30.23,East,84,5.0,8.0,80,0.00,,---,0.00,81.00,VWS V14.01,2013-01-11 18:46:00,
2013-01-11 13:51:00,41.2,35.5,30.24,ENE,70,4.0,8.0,80,0.00,,---,0.00,62.00,VWS V14.01,2013-01-11 18:51:00,
2013-01-11 13:56:00,41.3,35.9,30.23,ENE,63,3.0,8.0,81,0.00,,---,0.00,58.00,VWS V14.01,2013-01-11 18:56:00,
2013-01-11 14:00:00,41.3,35.9,30.23,East,86,6.0,8.0,81,0.00,,---,0.00,67.00,VWS V14.01,2013-01-11 19:00:00,
2013-01-11 14:02:00,41.4,36.0,30.23,East,94,5.0,6.0,81,0.00,,---,0.00,63.00,VWS V14.01,2013-01-11 19:02:00,
2013-01-11 14:07:00,41.5,36.1,30.22,ENE,67,5.0,6.0,81,0.00,,---,0.00,90.00,VWS V14.01,2013-01-11 19:07:00,
2013-01-11 14:12:00,41.6,36.2,30.22,East,87,5.0,7.0,81,0.00,,---,0.00,93.00,VWS V14.01,2013-01-11 19:12:00,
2013-01-11 14:18:00,41.7,36.3,30.22,ENE,65,4.0,7.0,81,0.00,,---,0.00,88.00,VWS V14.01,2013-01-11 19:18:00,
2013-01-11 14:23:00,41.8,36.4,30.22,East,82,2.0,7.0,81,0.00,,---,0.00,60.00,VWS V14.01,2013-01-11 19:23:00,
2013-01-11 14:28:00,41.8,36.7,30.21,ENE,68,3.0,7.0,82,0.00,,---,0.00,72.00,VWS V14.01,2013-01-11 19:28:00,
2013-01-11 14:30:00,41.8,36.7,30.21,East,82,5.0,7.0,82,0.00,,---,0.00,111.00,VWS V14.01,2013-01-11 19:30:00,
2013-01-11 14:33:00,41.9,36.8,30.21,East,83,3.0,6.0,82,0.00,,---,0.00,47.00,VWS V14.01,2013-01-11 19:33:00,
2013-01-11 14:39:00,41.9,36.8,30.21,East,91,6.0,8.0,82,0.00,,---,0.00,35.00,VWS V14.01,2013-01-11 19:39:00,
2013-01-11 14:44:00,41.8,36.7,30.21,East,90,5.0,8.0,82,0.00,,---,0.00,32.00,VWS V14.01,2013-01-11 19:44:00,
2013-01-11 14:49:00,41.8,36.7,30.22,East,91,6.0,8.0,82,0.00,,---,0.00,32.00,VWS V14.01,2013-01-11 19:49:00,
2013-01-11 14:55:00,41.8,37.0,30.22,East,89,3.0,8.0,83,0.00,,---,0.00,28.00,VWS V14.01,2013-01-11 19:55:00,
2013-01-11 15:00:00,41.8,37.0,30.22,East,91,3.0,8.0,83,0.00,,---,0.00,28.00,VWS V14.01,2013-01-11 20:00:00,
2013-01-11 15:05:00,41.9,37.1,30.22,East,80,2.0,5.0,83,0.00,,---,0.00,37.00,VWS V14.01,2013-01-11 20:05:00,
2013-01-11 15:11:00,41.9,37.1,30.21,ENE,67,3.0,6.0,83,0.00,,---,0.00,58.00,VWS V14.01,2013-01-11 20:11:00,
2013-01-11 15:16:00,42.0,37.5,30.21,ENE,78,1.0,6.0,84,0.00,,---,0.00,40.00,VWS V14.01,2013-01-11 20:16:00,
2013-01-11 15:21:00,42.0,37.5,30.20,ENE,65,5.0,7.0,84,0.00,,---,0.00,60.00,VWS V14.01,2013-01-11 20:21:00,
2013-01-11 15:26:00,42.0,37.5,30.19,East,84,3.0,8.0,84,0.00,,---,0.00,42.00,VWS V14.01,2013-01-11 20:26:00,
2013-01-11 15:30:00,42.1,37.6,30.20,East,83,5.0,8.0,84,0.00,,---,0.00,14.00,VWS V14.01,2013-01-11 20:30:00,
2013-01-11 15:32:00,42.1,37.6,30.20,East,80,3.0,7.0,84,0.00,,---,0.00,9.00,VWS V14.01,2013-01-11 20:32:00,
2013-01-11 15:37:00,42.0,37.5,30.19,ENE,72,3.0,7.0,84,0.00,,---,0.00,5.00,VWS V14.01,2013-01-11 20:37:00,
2013-01-11 15:42:00,41.9,37.4,30.19,East,81,6.0,7.0,84,0.00,,---,0.00,9.00,VWS V14.01,2013-01-11 20:42:00,
2013-01-11 15:48:00,41.8,37.6,30.18,ENE,78,4.0,7.0,85,0.00,,---,0.00,9.00,VWS V14.01,2013-01-11 20:48:00,
2013-01-11 15:53:00,41.7,37.8,30.19,ENE,69,4.0,7.0,86,0.00,,---,0.00,7.00,VWS V14.01,2013-01-11 20:53:00,
2013-01-11 15:58:00,41.6,38.0,30.19,East,90,3.0,7.0,87,0.00,,---,0.00,5.00,VWS V14.01,2013-01-11 20:58:00,
2013-01-11 16:00:00,41.6,38.0,30.19,East,82,3.0,7.0,87,0.00,,---,0.00,0.00,VWS V14.01,2013-01-11 21:00:00,
2013-01-11 16:03:00,41.4,37.8,30.19,East,82,5.0,7.0,87,0.01,,---,0.01,0.00,VWS V14.01,2013-01-11 21:03:00,
2013-01-11 16:09:00,41.2,37.9,30.19,East,84,5.0,7.0,88,0.01,,---,0.01,0.00,VWS V14.01,2013-01-11 21:09:00,
2013-01-11 16:14:00,41.1,38.1,30.18,East,80,5.0,7.0,89,0.02,,---,0.02,0.00,VWS V14.01,2013-01-11 21:14:00,
2013-01-11 16:19:00,40.9,38.2,30.18,East,86,5.0,7.0,90,0.04,,---,0.04,0.00,VWS V14.01,2013-01-11 21:19:00,
2013-01-11 16:25:00,40.7,38.3,30.18,East,88,5.0,7.0,91,0.05,,---,0.05,0.00,VWS V14.01,2013-01-11 21:25:00,
2013-01-11 16:30:00,40.6,38.2,30.18,East,84,2.0,7.0,91,0.06,,---,0.06,0.00,VWS V14.01,2013-01-11 21:30:00,
2013-01-11 16:35:00,40.5,38.4,30.17,East,84,5.0,5.0,92,0.07,,---,0.07,0.00,VWS V14.01,2013-01-11 21:35:00,
2013-01-11 16:41:00,40.5,38.4,30.17,ENE,78,3.0,5.0,92,0.07,,---,0.07,0.00,VWS V14.01,2013-01-11 21:41:00,
2013-01-11 16:46:00,40.4,38.3,30.16,ENE,69,2.0,5.0,92,0.09,,---,0.09,0.00,VWS V14.01,2013-01-11 21:46:00,
2013-01-11 16:51:00,40.4,38.5,30.15,ENE,65,5.0,7.0,93,0.10,,---,0.10,0.00,VWS V14.01,2013-01-11 21:51:00,
2013-01-11 16:57:00,40.5,38.6,30.14,ENE,66,7.0,8.0,93,0.11,,---,0.11,0.00,VWS V14.01,2013-01-11 21:57:00,
2013-01-11 17:00:00,40.5,38.6,30.14,ENE,74,4.0,8.0,93,0.12,,---,0.12,0.00,VWS V14.01,2013-01-11 22:00:00,
2013-01-11 17:02:00,40.5,38.6,30.14,ENE,70,5.0,7.0,93,0.12,,---,0.12,0.00,VWS V14.01,2013-01-11 22:02:00,
2013-01-11 17:07:00,40.6,38.7,30.14,ENE,65,5.0,7.0,93,0.13,,---,0.13,0.00,VWS V14.01,2013-01-11 22:07:00,
2013-01-11 17:12:00,40.7,39.1,30.14,ENE,67,3.0,7.0,94,0.13,,---,0.13,0.00,VWS V14.01,2013-01-11 22:12:00,
2013-01-11 17:18:00,40.9,39.3,30.13,ENE,67,5.0,8.0,94,0.15,,---,0.15,0.00,VWS V14.01,2013-01-11 22:18:00,
2013-01-11 17:23:00,41.1,39.5,30.12,ENE,63,8.0,9.0,94,0.16,,---,0.16,0.00,VWS V14.01,2013-01-11 22:23:00,
2013-01-11 17:28:00,41.2,39.6,30.12,ENE,60,8.0,9.0,94,0.17,,---,0.17,0.00,VWS V14.01,2013-01-11 22:28:00,
2013-01-11 17:30:00,41.3,39.7,30.11,ENE,63,10.0,10.0,94,0.17,,---,0.17,0.00,VWS V14.01,2013-01-11 22:30:00,
2013-01-11 17:34:00,41.4,39.8,30.11,NE,55,7.0,10.0,94,0.12,,---,0.18,0.00,VWS V14.01,2013-01-11 22:34:00,
2013-01-11 17:39:00,41.5,39.9,30.11,ENE,77,3.0,10.0,94,0.12,,---,0.18,0.00,VWS V14.01,2013-01-11 22:39:00,
2013-01-11 17:44:00,41.5,39.9,30.11,ENE,74,8.0,10.0,94,0.13,,---,0.19,0.00,VWS V14.01,2013-01-11 22:44:00,
2013-01-11 17:49:00,41.7,40.4,30.11,ENE,67,7.0,10.0,95,0.14,,---,0.20,0.00,VWS V14.01,2013-01-11 22:49:00,
2013-01-11 17:55:00,41.7,40.4,30.12,East,86,5.0,10.0,95,0.16,,---,0.22,0.00,VWS V14.01,2013-01-11 22:55:00,
2013-01-11 18:00:00,41.7,40.4,30.12,ENE,76,3.0,10.0,95,0.19,,---,0.25,0.00,VWS V14.01,2013-01-11 23:00:00,
2013-01-11 18:05:00,41.8,40.5,30.12,ENE,76,3.0,5.0,95,0.13,,---,0.25,0.00,VWS V14.01,2013-01-11 23:05:00,
2013-01-11 18:11:00,41.8,40.5,30.14,ENE,76,0.0,5.0,95,0.15,,---,0.27,0.00,VWS V14.01,2013-01-11 23:11:00,
2013-01-11 18:16:00,41.9,40.6,30.14,SSE,167,0.0,5.0,95,0.18,,---,0.30,0.00,VWS V14.01,2013-01-11 23:16:00,
2013-01-11 18:21:00,41.9,40.6,30.14,SSE,168,0.0,5.0,95,0.19,,---,0.31,0.00,VWS V14.01,2013-01-11 23:21:00,
2013-01-11 18:26:00,41.9,40.6,30.14,SSE,168,0.0,5.0,95,0.20,,---,0.32,0.00,VWS V14.01,2013-01-11 23:26:00,
2013-01-11 18:30:00,41.9,40.6,30.14,SSE,168,0.0,5.0,95,0.20,,---,0.32,0.00,VWS V14.01,2013-01-11 23:30:00,
2013-01-11 18:32:00,41.9,40.6,30.15,SSE,168,0.0,0.0,95,0.16,,---,0.33,0.00,VWS V14.01,2013-01-11 23:32:00,
2013-01-11 18:37:00,41.9,40.6,30.14,SSE,168,1.0,1.0,95,0.19,,---,0.36,0.00,VWS V14.01,2013-01-11 23:37:00,
2013-01-11 18:42:00,41.9,40.6,30.15,SSW,213,0.0,2.0,95,0.23,,---,0.40,0.00,VWS V14.01,2013-01-11 23:42:00,
2013-01-11 18:48:00,41.9,40.6,30.15,SSW,213,2.0,2.0,95,0.25,,---,0.42,0.00,VWS V14.01,2013-01-11 23:48:00,
2013-01-11 18:53:00,41.8,40.5,30.14,SW,222,1.0,2.0,95,0.27,,---,0.44,0.00,VWS V14.01,2013-01-11 23:53:00,
2013-01-11 18:58:00,41.8,40.5,30.14,NNW,336,2.0,3.0,95,0.30,,---,0.47,0.00,VWS V14.01,2013-01-11 23:58:00,
2013-01-11 19:00:00,41.7,40.4,30.14,NNW,336,1.0,3.0,95,0.30,,---,0.47,0.00,VWS V14.01,2013-01-12 00:00:00,
2013-01-11 19:03:00,41.6,40.3,30.13,North,350,2.0,3.0,95,0.23,,---,0.48,0.00,VWS V14.01,2013-01-12 00:03:00,
2013-01-11 19:09:00,41.5,40.2,30.13,North,350,0.0,3.0,95,0.24,,---,0.49,0.00,VWS V14.01,2013-01-12 00:09:00,
2013-01-11 19:14:00,41.5,40.2,30.13,North,350,0.0,3.0,95,0.25,,---,0.50,0.00,VWS V14.01,2013-01-12 00:14:00,
2013-01-11 19:19:00,41.4,40.1,30.13,North,350,0.0,3.0,95,0.26,,---,0.51,0.00,VWS V14.01,2013-01-12 00:19:00,
2013-01-11 19:25:00,41.4,40.1,30.13,North,350,1.0,3.0,95,0.26,,---,0.51,0.00,VWS V14.01,2013-01-12 00:25:00,
2013-01-11 19:30:00,41.4,40.1,30.12,NNW,344,2.0,3.0,95,0.26,,---,0.51,0.00,VWS V14.01,2013-01-12 00:30:00,
2013-01-11 19:35:00,41.4,40.1,30.12,NNW,344,1.0,3.0,95,0.20,,---,0.52,0.00,VWS V14.01,2013-01-12 00:35:00,
2013-01-11 19:41:00,41.4,40.1,30.11,NNW,344,0.0,3.0,95,0.20,,---,0.52,0.00,VWS V14.01,2013-01-12 00:41:00,
2013-01-11 19:46:00,41.4,40.1,30.11,NNW,344,1.0,3.0,95,0.20,,---,0.52,0.00,VWS V14.01,2013-01-12 00:46:00,
2013-01-11 19:51:00,41.3,40.0,30.10,North,360,2.0,3.0,95,0.20,,---,0.52,0.00,VWS V14.01,2013-01-12 00:51:00,
2013-01-11 19:56:00,41.3,40.0,30.10,North,360,0.0,3.0,95,0.20,,---,0.52,0.00,VWS V14.01,2013-01-12 00:56:00,
2013-01-11 20:00:00,41.3,40.0,30.10,North,9,0.0,3.0,95,0.20,,---,0.52,0.00,VWS V14.01,2013-01-12 01:00:00,
2013-01-11 20:02:00,41.4,40.1,30.10,North,5,0.0,2.0,95,0.06,,---,0.53,0.00,VWS V14.01,2013-01-12 01:02:00,
2013-01-11 20:07:00,41.4,40.3,30.09,North,5,0.0,2.0,96,0.06,,---,0.53,0.00,VWS V14.01,2013-01-12 01:07:00,
2013-01-11 20:12:00,41.5,40.5,30.09,NNE,16,0.0,3.0,96,0.06,,---,0.53,0.00,VWS V14.01,2013-01-12 01:12:00,
2013-01-11 20:18:00,41.5,40.2,30.09,NNE,16,0.0,3.0,95,0.06,,---,0.53,0.00,VWS V14.01,2013-01-12 01:18:00,
2013-01-11 20:23:00,41.6,40.3,30.09,NNE,16,0.0,3.0,95,0.06,,---,0.53,0.00,VWS V14.01,2013-01-12 01:23:00,
2013-01-11 20:28:00,41.7,40.7,30.09,NNE,16,1.0,3.0,96,0.06,,---,0.53,0.00,VWS V14.01,2013-01-12 01:28:00,
2013-01-11 20:30:00,41.7,40.7,30.09,NNE,29,0.0,3.0,96,0.06,,---,0.53,0.00,VWS V14.01,2013-01-12 01:30:00,
2013-01-11 20:33:00,41.8,40.8,30.10,NNE,29,0.0,2.0,96,0.02,,---,0.53,0.00,VWS V14.01,2013-01-12 01:33:00,
2013-01-11 20:39:00,41.8,40.8,30.09,NNE,29,0.0,2.0,96,0.04,,---,0.55,0.00,VWS V14.01,2013-01-12 01:39:00,
2013-01-11 20:44:00,41.9,40.8,30.09,NNE,29,1.0,2.0,96,0.05,,---,0.56,0.00,VWS V14.01,2013-01-12 01:44:00,
2013-01-11 20:49:00,42.0,40.9,30.08,NNE,29,1.0,2.0,96,0.05,,---,0.56,0.00,VWS V14.01,2013-01-12 01:49:00,
2013-01-11 20:55:00,42.0,40.9,30.08,NE,34,0.0,2.0,96,0.05,,---,0.56,0.00,VWS V14.01,2013-01-12 01:55:00,
2013-01-11 21:00:00,42.1,41.0,30.08,NNW,338,1.0,4.0,96,0.05,,---,0.56,0.00,VWS V14.01,2013-01-12 02:00:00,
2013-01-11 21:05:00,42.2,41.1,30.08,NNW,329,0.0,4.0,96,0.04,,---,0.56,0.00,VWS V14.01,2013-01-12 02:05:00,
2013-01-11 21:11:00,42.1,41.0,30.08,NNW,338,0.0,4.0,96,0.04,,---,0.56,0.00,VWS V14.01,2013-01-12 02:11:00,
2013-01-11 21:16:00,42.1,41.0,30.07,NNW,338,4.0,4.0,96,0.04,,---,0.56,0.00,VWS V14.01,2013-01-12 02:16:00,
2013-01-11 21:21:00,42.0,40.9,30.06,NNW,338,0.0,4.0,96,0.04,,---,0.56,0.00,VWS V14.01,2013-01-12 02:21:00,
2013-01-11 21:27:00,41.9,40.8,30.07,NNW,339,2.0,4.0,96,0.04,,---,0.56,0.00,VWS V14.01,2013-01-12 02:27:00,
2013-01-11 21:30:00,41.9,40.8,30.07,NNW,340,2.0,4.0,96,0.04,,---,0.56,0.00,VWS V14.01,2013-01-12 02:30:00,
2013-01-11 21:32:00,41.9,40.8,30.07,NNW,345,2.0,3.0,96,0.03,,---,0.56,0.00,VWS V14.01,2013-01-12 02:32:00,
2013-01-11 21:37:00,42.0,40.9,30.08,NNW,345,0.0,3.0,96,0.03,,---,0.56,0.00,VWS V14.01,2013-01-12 02:37:00,
2013-01-11 21:42:00,42.0,40.9,30.07,NW,313,2.0,4.0,96,0.03,,---,0.56,0.00,VWS V14.01,2013-01-12 02:42:00,
2013-01-11 21:48:00,42.0,40.9,30.08,NNW,338,3.0,4.0,96,0.03,,---,0.56,0.00,VWS V14.01,2013-01-12 02:48:00,
2013-01-11 21:53:00,42.0,40.9,30.08,NNW,340,0.0,5.0,96,0.03,,---,0.56,0.00,VWS V14.01,2013-01-12 02:53:00,
2013-01-11 21:58:00,42.0,40.9,30.07,NNW,340,0.0,5.0,96,0.03,,---,0.56,0.00,VWS V14.01,2013-01-12 02:58:00,
2013-01-11 22:00:00,42.0,40.9,30.07,NNW,340,0.0,5.0,96,0.03,,---,0.56,0.00,VWS V14.01,2013-01-12 03:00:00,
2013-01-11 22:04:00,41.9,40.8,30.06,NNW,340,0.0,3.0,96,0.00,,---,0.56,0.00,VWS V14.01,2013-01-12 03:04:00,
2013-01-11 22:09:00,41.9,40.8,30.06,NNW,341,0.0,3.0,96,0.00,,---,0.56,0.00,VWS V14.01,2013-01-12 03:09:00,
2013-01-11 22:14:00,42.1,41.0,30.06,NNW,342,0.0,3.0,96,0.00,,---,0.56,0.00,VWS V14.01,2013-01-12 03:14:00,
2013-01-11 22:20:00,42.1,41.0,30.06,NNW,342,0.0,3.0,96,0.00,,---,0.56,0.00,VWS V14.01,2013-01-12 03:20:00,
2013-01-11 22:25:00,42.1,41.0,30.05,NNW,342,0.0,3.0,96,0.00,,---,0.56,0.00,VWS V14.01,2013-01-12 03:25:00,
2013-01-11 22:30:00,42.2,41.1,30.05,NNW,344,0.0,0.0,96,0.00,,---,0.56,0.00,VWS V14.01,2013-01-12 03:30:00,
2013-01-11 22:36:00,42.1,41.0,30.05,NNW,344,0.0,2.0,96,0.00,,---,0.56,0.00,VWS V14.01,2013-01-12 03:36:00,
2013-01-11 22:41:00,42.1,41.0,30.06,NNW,347,1.0,3.0,96,0.00,,---,0.56,0.00,VWS V14.01,2013-01-12 03:41:00,
2013-01-11 22:46:00,42.0,40.9,30.06,NNW,347,2.0,3.0,96,0.00,,---,0.56,0.00,VWS V14.01,2013-01-12 03:46:00,
2013-01-11 22:51:00,42.0,40.9,30.06,NNW,333,3.0,4.0,96,0.00,,---,0.56,0.00,VWS V14.01,2013-01-12 03:51:00,
2013-01-11 22:57:00,41.9,40.8,30.06,NNW,344,3.0,5.0,96,0.00,,---,0.56,0.00,VWS V14.01,2013-01-12 03:57:00,
2013-01-11 23:00:00,41.9,40.8,30.06,NNW,344,2.0,5.0,96,0.00,,---,0.56,0.00,VWS V14.01,2013-01-12 04:00:00,
2013-01-11 23:02:00,41.8,40.8,30.05,NNW,344,2.0,3.0,96,0.00,,---,0.56,0.00,VWS V14.01,2013-01-12 04:02:00,
2013-01-11 23:07:00,41.8,40.8,30.06,NW,325,3.0,4.0,96,0.00,,---,0.56,0.00,VWS V14.01,2013-01-12 04:07:00,
2013-01-11 23:13:00,41.8,40.8,30.05,NW,316,1.0,4.0,96,0.00,,---,0.56,0.00,VWS V14.01,2013-01-12 04:13:00,
2013-01-11 23:18:00,41.7,40.7,30.06,NW,325,2.0,4.0,96,0.00,,---,0.56,0.00,VWS V14.01,2013-01-12 04:18:00,
2013-01-11 23:23:00,41.5,40.5,30.05,NW,325,0.0,4.0,96,0.00,,---,0.56,0.00,VWS V14.01,2013-01-12 04:23:00,
2013-01-11 23:28:00,41.3,40.2,30.05,NW,325,0.0,4.0,96,0.00,,---,0.56,0.00,VWS V14.01,2013-01-12 04:28:00,
2013-01-11 23:30:00,41.3,40.2,30.05,NW,325,0.0,4.0,96,0.00,,---,0.56,0.00,VWS V14.01,2013-01-12 04:30:00,
2013-01-11 23:34:00,41.2,40.2,30.04,NW,325,0.0,1.0,96,0.00,,---,0.56,0.00,VWS V14.01,2013-01-12 04:34:00,
2013-01-11 23:39:00,41.3,40.2,30.04,NNW,327,3.0,3.0,96,0.00,,---,0.56,0.00,VWS V14.01,2013-01-12 04:39:00,
2013-01-11 23:45:00,41.4,40.3,30.04,NNW,327,2.0,3.0,96,0.00,,---,0.56,0.00,VWS V14.01,2013-01-12 04:45:00,
2013-01-11 23:50:00,41.5,40.5,30.04,NNW,327,2.0,3.0,96,0.00,,---,0.56,0.00,VWS V14.01,2013-01-12 04:50:00,
2013-01-11 23:55:00,41.4,40.3,30.04,NNW,329,0.0,3.0,96,0.00,,---,0.56,0.00,VWS V14.01,2013-01-12 04:55:00,